Back to catalog

STARLINK-30164

AliveCommunicationsVLEO
NORAD 57500·PAYLOAD·🇺🇸 United States

Launched Aug 7, 2023 from Cape Canaveral Space Force Station

Loading…

Next Passes (next 24 hours)

TLE

FreshSource: CelesTrak SupGP

Epoch: Sep 15, 2026, 02:56 UTC

1 57500C 23113F   26258.12270833 -.00037308  00000+0 -13514-2 0  2582
2 57500  43.0019  26.2490 0001608 268.0172 195.7327 15.27595409    12

Track STARLINK-30164 in real time with AllMySat

Download on the App Store